Howell, MI

1:38 PM EST on February 10, 2016 (GMT -0500)
Livingston County

Weather History for KOZW - April, 2014

Change the Weather History Date:

Monday, April 7, 2014

  Actual Average Record
Temperature  
Mean Temperature 42 °F -  
Max Temperature 54 °F 53 °F 73 °F (2001)
Min Temperature 31 °F 34 °F 17 °F (2007)
Degree Days  
Heating Degree Days 22    
Moisture  
Dew Point 28 °F    
Average Humidity 63    
Maximum Humidity 97    
Minimum Humidity 28    
Precipitation  
Precipitation 0.00 in - - ()
Sea Level Pressure  
Sea Level Pressure 29.76 in    
Wind  
Wind Speed 4 mph (ENE)    
Max Wind Speed 12 mph    
Max Gust Speed 18 mph    
Visibility 8 miles    
Events Rain    
Averages and records for this station are not official NWS values.
T = Trace of Precipitation, MM = Missing Value Source: NWS Daily Summary

Daily Weather History Graph

Daily Weather History Graph

Search for Another Location

Airport or City:

Trip Planner

Search our weather history database for the weather conditions in past years. The results will help you decide how hot, cold, wet, or windy it might be!

Date:

Astronomy

Apr. 07, 2014 Rise Set
Actual Time 7:07 AM EDT 8:08 PM EDT
Civil Twilight 6:39 AM EDT 8:37 PM EDT
Nautical Twilight 6:04 AM EDT 9:12 PM EDT
Astronomical Twilight 5:29 AM EDT 9:48 PM EDT
Moon 12:59 PM EDT (4/7) 2:49 AM EDT (4/7)
Length of Visible Light 13h 58m
Length of Day
13h 00m
First Quarter, 53% of the Moon is Illuminated
Apr 7
First Quarter
Apr 15
Full
Apr 22
Last Quarter
Apr 29
New
May 6
First Quarter

Hourly Weather History & Observations

Time (EDT) Temp. Windchill Dew Point Humidity Pressure Visibility Wind Dir Wind Speed Gust Speed Precip Events Conditions
12:15 AM 39.2 °F 35.0 °F 27.0 °F 62% 30.01 in 10.0 mi SE 5.8 mph - N/A   Scattered Clouds
12:34 AM 38.5 °F 35.0 °F 26.8 °F 63% 30.01 in 10.0 mi SSE 4.6 mph - N/A   Clear
12:55 AM 38.3 °F 34.8 °F 26.4 °F 62% 30.01 in 10.0 mi SE 4.6 mph - N/A   Clear
1:15 AM 38.5 °F 36.1 °F 26.6 °F 62% 30.01 in 10.0 mi SE 3.5 mph - N/A   Clear
1:34 AM 38.3 °F 35.9 °F 26.8 °F 63% 30.00 in 10.0 mi SE 3.5 mph - N/A   Clear
1:55 AM 38.1 °F 35.7 °F 25.3 °F 60% 30.00 in 10.0 mi SE 3.5 mph - N/A   Clear
2:15 AM 37.8 °F 35.3 °F 24.4 °F 59% 29.99 in 10.0 mi East 3.5 mph - N/A   Clear
2:34 AM 37.6 °F - 24.6 °F 60% 29.98 in 10.0 mi Calm Calm - N/A   Clear
2:55 AM 35.2 °F - 24.3 °F 64% 29.97 in 10.0 mi Calm Calm - N/A   Clear
3:15 AM 36.3 °F - 24.6 °F 63% 29.97 in 10.0 mi Calm Calm - N/A   Clear
3:35 AM 36.5 °F - 24.3 °F 61% 29.96 in 10.0 mi Calm Calm - N/A   Clear
3:55 AM 35.6 °F - 23.9 °F 62% 29.95 in 10.0 mi Calm Calm - N/A   Clear
4:15 AM 33.1 °F 30.0 °F 24.8 °F 72% 29.93 in 10.0 mi East 3.5 mph - N/A   Clear
4:35 AM 32.9 °F 29.8 °F 24.3 °F 71% 29.91 in 10.0 mi East 3.5 mph - N/A   Clear
4:55 AM 31.8 °F 27.3 °F 24.4 °F 74% 29.91 in 10.0 mi East 4.6 mph - N/A   Clear
5:15 AM 32.2 °F 26.7 °F 24.4 °F 73% 29.90 in 10.0 mi East 5.8 mph - N/A   Clear
5:35 AM 31.8 °F 28.5 °F 23.4 °F 71% 29.89 in 10.0 mi East 3.5 mph - N/A   Clear
5:55 AM 32.4 °F 29.1 °F 23.2 °F 69% 29.88 in 10.0 mi East 3.5 mph - N/A   Clear
6:15 AM 33.3 °F 30.2 °F 22.8 °F 66% 29.88 in 10.0 mi East 3.5 mph - N/A   Clear
6:35 AM 32.9 °F - 22.5 °F 65% 29.89 in 10.0 mi Calm Calm - N/A   Clear
6:55 AM 33.3 °F - 22.8 °F 66% 29.88 in 10.0 mi Calm Calm - N/A   Clear
7:15 AM 33.8 °F 29.6 °F 22.8 °F 64% 29.88 in 10.0 mi ENE 4.6 mph - N/A   Clear
7:35 AM 34.7 °F - 21.9 °F 60% 29.88 in 10.0 mi Calm Calm - N/A   Clear
7:55 AM 34.7 °F 31.8 °F 23.0 °F 62% 29.89 in 10.0 mi ENE 3.5 mph - N/A   Clear
8:14 AM 35.6 °F 32.8 °F 23.9 °F 62% 29.88 in 10.0 mi NE 3.5 mph - N/A   Clear
8:35 AM 36.7 °F 34.1 °F 24.4 °F 61% 29.87 in 10.0 mi ENE 3.5 mph - N/A   Clear
8:55 AM 38.3 °F 35.9 °F 25.5 °F 60% 29.87 in 10.0 mi East 3.5 mph - N/A   Clear
9:14 AM 39.4 °F 37.2 °F 24.8 °F 56% 29.88 in 10.0 mi East 3.5 mph - N/A   Clear
9:35 AM 40.1 °F 38.0 °F 24.6 °F 54% 29.88 in 10.0 mi ENE 3.5 mph - N/A   Clear
9:55 AM 41.0 °F 39.0 °F 24.4 °F 52% 29.86 in 10.0 mi NNE 3.5 mph - N/A   Clear
10:14 AM 41.0 °F - 25.0 °F 53% 29.85 in 10.0 mi Calm Calm - N/A   Clear
10:35 AM 42.1 °F 39.2 °F 26.1 °F 53% 29.85 in 10.0 mi ENE 4.6 mph - N/A   Clear
10:55 AM 43.0 °F 40.3 °F 25.7 °F 51% 29.83 in 10.0 mi ENE 4.6 mph - N/A   Clear
11:15 AM 44.1 °F 41.5 °F 25.3 °F 48% 29.82 in 10.0 mi ENE 4.6 mph - N/A   Scattered Clouds
11:35 AM 46.0 °F 43.9 °F 25.7 °F 45% 29.81 in 10.0 mi ENE 4.6 mph - N/A   Mostly Cloudy
11:55 AM 48.0 °F - 25.5 °F 41% 29.79 in 10.0 mi East 5.8 mph - N/A   Scattered Clouds
12:15 PM 49.6 °F - 23.9 °F 37% 29.76 in 10.0 mi NE 9.2 mph - N/A   Mostly Cloudy
12:35 PM 51.1 °F - 23.4 °F 34% 29.75 in 10.0 mi East 8.1 mph - N/A   Mostly Cloudy
12:55 PM 50.9 °F - 22.6 °F 33% 29.73 in 10.0 mi ENE 9.2 mph - N/A   Mostly Cloudy
1:15 PM 52.7 °F - 22.3 °F 31% 29.72 in 10.0 mi East 10.4 mph - N/A   Overcast
1:35 PM 54.0 °F - 21.4 °F 28% 29.71 in 10.0 mi East 11.5 mph 18.4 mph N/A   Overcast
1:55 PM 54.0 °F - 22.1 °F 29% 29.71 in 10.0 mi East 11.5 mph 16.1 mph N/A   Mostly Cloudy
2:15 PM 54.0 °F - 21.4 °F 28% 29.68 in 10.0 mi East 11.5 mph - N/A   Mostly Cloudy
2:35 PM 54.5 °F - 22.1 °F 28% 29.66 in 10.0 mi ENE 9.2 mph - N/A   Scattered Clouds
2:55 PM 54.3 °F - 21.9 °F 28% 29.64 in 10.0 mi ENE 9.2 mph - N/A   Scattered Clouds
3:15 PM 53.6 °F - 21.4 °F 28% 29.64 in 10.0 mi NE 8.1 mph - N/A   Mostly Cloudy
3:35 PM 52.5 °F - 23.4 °F 32% 29.63 in 10.0 mi NE 6.9 mph - N/A Rain Light Rain
4:15 PM 52.7 °F - 24.1 °F 33% 29.59 in 10.0 mi NNE 5.8 mph - N/A Rain Light Rain
4:35 PM 52.0 °F - 23.7 °F 33% 29.60 in 10.0 mi NNE 6.9 mph - N/A   Overcast
4:55 PM 51.6 °F - 25.5 °F 36% 29.60 in 10.0 mi NE 5.8 mph - N/A Rain Light Rain
5:15 PM 50.5 °F - 28.8 °F 43% 29.60 in 10.0 mi North 4.6 mph - N/A   Drizzle
5:35 PM 48.0 °F - 31.8 °F 54% 29.61 in 7.0 mi NNE 3.5 mph - N/A Rain Light Rain
5:55 PM 45.9 °F 43.6 °F 34.3 °F 64% 29.62 in 5.0 mi NNE 4.6 mph - N/A Rain Rain
6:15 PM 44.1 °F 41.5 °F 36.1 °F 74% 29.61 in 5.0 mi NE 4.6 mph - N/A Rain Rain
6:35 PM 43.2 °F 40.5 °F 38.5 °F 84% 29.61 in 5.0 mi NE 4.6 mph - N/A Rain Rain
6:55 PM 42.6 °F 39.0 °F 39.2 °F 88% 29.59 in 4.0 mi NE 5.8 mph - N/A Rain Rain
7:15 PM 42.1 °F - 39.2 °F 90% 29.59 in 5.0 mi Calm Calm - N/A Rain Rain
7:35 PM 41.7 °F 39.8 °F 39.0 °F 90% 29.59 in 4.0 mi NE 3.5 mph - N/A Rain Rain
7:55 PM 41.2 °F 39.2 °F 39.2 °F 93% 29.59 in 5.0 mi ENE 3.5 mph - N/A Rain Rain
8:15 PM 41.0 °F - 39.2 °F 93% 29.57 in 4.0 mi Calm Calm - N/A Rain Rain
8:34 PM 40.6 °F - 39.2 °F 95% 29.56 in 4.0 mi Calm Calm - N/A Rain Light Rain
8:55 PM 40.5 °F - 39.2 °F 95% 29.56 in 5.0 mi Calm Calm - N/A Rain Light Rain
9:15 PM 40.3 °F - 39.2 °F 96% 29.55 in 5.0 mi Calm Calm - N/A Rain Rain
9:34 PM 40.1 °F - 39.2 °F 97% 29.56 in 4.0 mi Calm Calm - N/A Rain Rain
9:55 PM 40.1 °F - 39.2 °F 97% 29.55 in 4.0 mi Calm Calm - N/A Rain Rain
10:15 PM 39.6 °F - 38.8 °F 97% 29.54 in 4.0 mi Calm Calm - N/A Rain Light Rain
10:34 PM 39.4 °F 37.2 °F 38.7 °F 97% 29.53 in 4.0 mi North 3.5 mph - N/A Rain Light Rain
10:55 PM 39.4 °F - 38.7 °F 97% 29.52 in 4.0 mi Calm Calm - N/A   Drizzle
11:15 PM 39.6 °F 36.3 °F 38.8 °F 97% 29.51 in 4.0 mi NW 4.6 mph - N/A   Drizzle
11:34 PM 39.7 °F 33.7 °F 38.8 °F 97% 29.51 in 4.0 mi NW 9.2 mph - N/A   Light Drizzle
11:55 PM 39.6 °F 34.7 °F 38.7 °F 97% 29.50 in 4.0 mi NNW 6.9 mph - N/A   Light Drizzle